Preview of NWS' New Version of Forecast
This preview is not operational and should not be used for support decisions.

Regional Weather Roundup (RWR)

Issued by National Weather Service (NWS)

                            
000
ASUS43 KTOP 182208
RWRKS 

WEATHER ROUNDUP FOR KANSAS
NATIONAL WEATHER SERVICE GOODLAND KS
500 PM CDT THU APR 18 2019

NOTE:  "FAIR" INDICATES FEW OR NO CLOUDS BELOW 12,000 FEET WITH NO
SIGNIFICANT WEATHER AND/OR OBSTRUCTIONS TO VISIBILITY.

KSZ001>006-013>018-027>032-041>047-182300-
NORTHWEST KANSAS
  
CITY           SKY/WX    TMP DP  RH WIND       PRES   REMARKS
GOODLAND       LGT RAIN  48  37  65 N17G43    30.08R                  
HAYS           CLOUDY    59  33  37 NW18G31   29.97S                  
HILL CITY      SUNNY     54  39  57 NW24G41   30.01F                  
RUSSELL        LGT RAIN  56  33  42 NW21G46   29.92F                  
$$

KSZ061>065-074>080-084>089-182300-
SOUTHWEST KANSAS
  
CITY           SKY/WX    TMP DP  RH WIND       PRES   REMARKS
DODGE CITY     MOSUNNY   64  30  27 N32G44    29.97S                  
ELKHART        SUNNY     61  35  36 N24G32    30.07S                  
GARDEN CITY    LGT RAIN  52  36  54 NW31G53   30.04R                  
GREAT BEND       N/A     59  34  39 NW24G36   29.94R                  
LIBERAL        SUNNY     63  28  26 N32G40    30.01F                  
PRATT          PTSUNNY   62  31  31 N29       29.92F                  
$$

KSZ066>073-081>083-090>101-182300-
SOUTHEAST KANSAS
  
CITY           SKY/WX    TMP DP  RH WIND       PRES   REMARKS
CHANUTE        MOSUNNY   65  39  38 N14G25    29.83S                  
COFFEYVILLE    CLOUDY    64  40  41 N13G24    29.81S                  
HUTCHINSON     LGT RAIN  59  37  44 N24G47    29.89S                  
MEDICINE LODGE   N/A     61  34  36 NW17G33   29.91R                  
NEWTON         CLOUDY    63  40  42 N18       29.87R                  
PARSONS          N/A     66  39  37 N16G29    29.83S                  
WICHITA INTL   CLOUDY    62  39  42 N17G25    29.87R                  
WICHITA JABRA  CLOUDY    57  42  57 NW10      29.87R                  
WICHITA MCCONL LGT RAIN  54  45  71 NW14G21   29.88                   
WINFIELD       CLOUDY    60  44  55 NW9       29.87R                  
$$

KSZ007>012-019>026-033>040-048>060-102>105-182300-
NORTHEAST KANSAS
  
CITY           SKY/WX    TMP DP  RH WIND       PRES   REMARKS
CONCORDIA        N/A    N/A N/A N/A MISG      29.88F                  
EMPORIA        PTSUNNY   63  36  36 N16G26    29.83R                  
LAWRENCE       PTSUNNY   64  38  38 N15G24    29.82S                  
MANHATTAN      PTSUNNY   61  36  39 NW15G35   29.87S                  
MARYSVILLE     PTSUNNY   61  36  39 N15G28    29.84F                  
OLATHE IND     MOSUNNY   60  41  49 N17G30    29.83S                  
OLATHE EXE     MOSUNNY   58  38  47 N15       29.83R                  
SALINA         MOSUNNY   63  36  36 N24G36    29.89R                  
TOPEKA BILLARD MOSUNNY   65  35  33 N26G37    29.82S                  
TOPEKA FORBES  MOSUNNY   65  35  33 N21G30    29.82R                  
$$